星链-3822 (STARLINK-3822 )

导读

STARLINK-3822是美国太空探索技术公司(SpaceX)星链(Starlink)星座的成员卫星,星链是SpaceX打造的全球卫星互联网星座项目。该卫星于北京时间2022年4月21日发射入轨,承担星链星座低轨互联网服务任务,为全球提供高速宽带通信服务,补充完善星链星座的全球覆盖与服务能力。

Basic Information
目录编号:
52287
目录名称:
STARLINK-3822
国际标识:
2022-041AC
轨道中心:
EARTH
卫星名称:
星链-3822
卫星全名:
星链-3822 (STARLINK-3822 )
卫星状态:
在轨 (已飞行1605 天)
发射日期:
2022-04-21 UTC
国别 :
美国 (US)
星等 :
--
This satellite is enrolled in the Space Conjunction Data Service (SCDS) and the current flight risk assessment level is: No High Risk
Orbit Information
数据来源 国际轨道数据 AOE轨道数据
星历时间 2026-09-11T19:23:20+0800
21小时前
查看轨道信息
2026-09-06T07:00:00+0800
6天前
查看轨道信息
半长轴 6848.849km 6848.774km
偏心率 0.0000953 0.0001163
轨道倾角 53.162° 53.162°
近地点辐角 79.470° 59.700°
升交点赤经 343.477° 9.162°
平近点角 280.641° 106.407°
近地点 470.059km 469.84km
远地点 471.365km 471.434km
周期 94.013分钟 94.011分钟
每日圈数 15.317094 15.317347
Detailed Information
固有亮度:
5
最大亮度:
2.5
卫星平台:
Starlink v1.5
覆盖范围:
全球
运营商:
太空探索技术公司
运营商所在国:
美国
制造商(研发单位):
太空探索技术公司
制造商所在国:
美国
使用方式:
暂无
Satellite Introduction
星链(Starlink)计划是由太空探索技术公司(SpaceX)提出的一个巨型低轨卫星互联网星座项目,计划在2019年至2024年间在太空搭建由约1.2万颗卫星组成的“星链”网络,其中1584颗将部署在地球上空550千米处的近地轨道,并从2020年开始工作。该卫星仍在工作。
2D Orbit Map
3D Orbit Map
Orbit Altitude Analysis Chart
Orbit Inclination Analysis Chart
Orbit Comprehensive Analysis Chart
View Comprehensive Chart
Conjunction Data List
Event ID Objects TCA Miss Dist (km) Collision Risk Probability Collision Risk Index (CRI) Action
CDM_260914-155005-228706-534921
2026-09-14T
15:50:41+0000
0.844 km
远距离
3.049149E-5 中风险 0.65
CDM_260912-054005-228705-937126
2026-09-12T
05:40:09+0000
1.026 km
极远距离
2.385275E-5 中风险 0.63
CDM_260914-141605-228706-534921
2026-09-14T
14:16:44+0000
2.165 km
极远距离
1.58873E-6 低风险 0.39
CDM_260915-002305-228705-256421
2026-09-15T
00:23:14+0000
1.878 km
极远距离
1.380577E-6 低风险 0.38
CDM_260914-224905-228705-256421
2026-09-14T
22:49:16+0000
2.957 km
极远距离
6.165297E-7 极低风险 0.31
Miss Distance Evolution Trend with All Objects
Collision Probability Evolution Trend with All Objects